Simultaneous Nadir Overpasses (SNOs) Predictions

Prediction of SNOs between LANDSAT-8 and METOP-A Satellite Orbit:

Table of predicted SNOs for the next 14.0 days since TLE Epoch: 5/28/2016
Index Date (LANDSAT-8) Time (LANDSAT-8) Lat,Lon (LANDSAT-8) SZA (LANDSAT-8 ) Date (METOP-A) Time (METOP-A) Lat,Lon (METOP-A) SZA (METOP-A ) Distance(km) Time Diff (sec)
1 05/28/2016 13:23:18 81.16, 19.80 61.88 05/28/2016 13:22:09 81.16, 19.77 61.84 0.74 69
2 05/28/2016 14:12:44 -81.18,-172.26 118.09 05/28/2016 14:12:48 -81.18,-172.34 118.10 1.49 4
3 05/31/2016 08:57:33 81.17, 86.27 61.46 05/31/2016 08:56:30 81.16, 86.34 61.44 1.15 63
4 05/31/2016 09:46:59 -81.19,-105.76 118.50 05/31/2016 09:47:09 -81.18,-105.76 118.49 0.53 10
5 06/03/2016 04:31:49 81.17, 152.72 61.09 06/03/2016 04:30:52 81.17, 152.89 61.09 2.92 57
6 06/03/2016 05:21:15 -81.19, -39.29 118.87 06/03/2016 05:21:31 -81.19, -39.19 118.85 1.83 16
7 06/06/2016 00:06:05 81.16,-140.88 60.76 06/06/2016 00:05:15 81.16,-140.97 60.73 1.66 50
8 06/06/2016 00:55:31 -81.19, 27.14 119.19 06/06/2016 00:55:54 -81.18, 26.98 119.20 2.81 23
9 06/08/2016 19:40:20 81.16, -74.50 60.48 06/08/2016 19:39:36 81.16, -74.47 60.47 0.70 44




NCC Satellite Simultaneous Nadir Overpasses (SNOs) Prediction Service
